Home > Weather > Nanaimo > Past weeks

Flag for Canada Past Weather in Nanaimo, British Columbia, Canada — Yesterday and Last 2 Weeks

Now
68 °F

Mild.


Feels Like: 68 °F
Forecast: 66 / 83 °F
Wind: 16 mph from North

Location: Entrance Island

Current Time: Aug 24, 2016 at 7:55:37 PM

Latest Report: Aug 24, 2016 at 7:00 PM


Visibility: N/A

Pressure: 30.13 "Hg

Humidity: 65%

Dew Point: 56 °F

Location of NanaimoLocation

Past Weather in Nanaimo — Graph

°F

Nanaimo Temperature Yesterday

Maximum temperature yesterday: 68 °F (at 7:00 PM)
Minimum temperature yesterday: 60 °F (at 1:00 AM)
Average temperature yesterday: 63 °F

High & Low Weather Summary for the Past Weeks

 TemperatureHumidityPressure
High78 °F (Aug 12, 10:00 PM)92% (Aug 10, 1:00 AM)30.27 "Hg (Aug 10, 1:00 AM)
Low60 °F (Aug 23, 1:00 AM)32% (Aug 19, 10:00 PM)29.75 "Hg (Aug 21, 3:00 AM)
Average66 °F73%30.03 "Hg
* Reported Aug 9 6:00 PM — Aug 24 6:00 PM, Nanaimo, Weather by CustomWeather, © 2016

Note: Actual official high and low records may vary slightly from our data, if they occured in-between our weather recording intervals... More about our weather records

Advertising

Nanaimo Weather History for the Previous 24 Hours

Scroll right to see more
 ConditionsComfort  
Time TempWeatherWind HumidityBarometerVisibility
6:00 PM
Wed, Aug 24
68 °FMild.7 mph67%30.14 "HgN/A
5:00 PM68 °FMild.17 mph64%30.16 "HgN/A
4:00 PM67 °FMild.21 mph68%30.18 "HgN/A
3:00 PM66 °FMild.21 mph67%30.19 "HgN/A
2:00 PM66 °FMild.24 mph68%30.22 "HgN/A
1:00 PM64 °FMild.20 mph76%30.24 "HgN/A
12:00 PM63 °FMild.18 mph78%30.25 "HgN/A
11:00 AM63 °FMild.17 mph79%30.27 "HgN/A
10:00 AM62 °FCool.18 mph80%30.27 "HgN/A
9:00 AM62 °FCool.18 mph82%30.27 "HgN/A
8:00 AM62 °FMild.20 mph78%30.26 "HgN/A
7:00 AM63 °FMild.21 mph76%30.25 "HgN/A
6:00 AM62 °FCool.23 mph79%30.24 "HgN/A
5:00 AM63 °FMild.21 mph74%30.23 "HgN/A
4:00 AM64 °FMild.22 mph74%30.22 "HgN/A
3:00 AM65 °FMild.21 mph71%30.21 "HgN/A
2:00 AM64 °FMild.23 mph73%30.20 "HgN/A
1:00 AM66 °FMild.24 mph66%30.19 "HgN/A
12:00 AM67 °FMild.21 mph67%30.19 "HgN/A
11:00 PM
Tue, Aug 23
65 °FMild.15 mph79%30.18 "HgN/A
10:00 PM66 °FMild.8 mph75%30.18 "HgN/A
9:00 PM66 °FMild.9 mph74%30.17 "HgN/A
8:00 PM66 °FMild.10 mph73%30.15 "HgN/A
7:00 PM68 °FMild.8 mph67%30.15 "HgN/A
Weather by CustomWeather, © 2016

See weather overviewHow to use our weather pages